Observer details:
046 Klet.  Observers J. Ticha, M. Tichy, M. Kocer.  0.57-m f/5.2 reflector
    + CCD.
165 Piera Observatory, Barcelona.  Observer J. Guarro.  0.40-m f/2 Schmidt
    + CCD.
349 Ageo.  Observer K. Kadota.  0.18-m f/5.5 reflector + CCD.
595 Farra d'Isonzo.  Observer E. Pettarin.  0.40-m f/4.5 reflector + CCD.
620 Observatorio Astronomico de Mallorca.  Observers S. Sanchez, M. Blasco.
    0.30-m f/3.3 Schmidt-Cassegrain + CCD.
670 Camarillo.  Observer J. E. Rogers.  0.30-m f/6.7 Helin Telescope + CCD.
704 Lincoln Laboratory ETS, New Mexico.  Observers M. Blythe, F. Shelly,
    M. Bezpalko, R. Huber, L. Manguso, S. Adams.  Measurers J. Stuart,
    R. Sayer, J. B. Evans, H. Viggh.  1.0-m f/2.15 reflector + CCD.
726 Brainerd.  Observer J. Wentworth.  0.28-m Schmidt-Cassegrain + CCD.
739 Sunflower Observatory, Olathe.  Observer L. Robinson.  0.25-m
    Schmidt-Cassegrain + CCD.
844 Los Molinos.  Observer F. Artigue.  0.35-m f/6.4 reflector + CCD.
918 Badlands Observatory, Quinn.  Observer R. Dyvig.  0.66-m f/4.8 reflector
    + CCD.
946 Ametlla de Mar.  Observer J. Nomen.  0.40-m f/2.0 Schmidt + CCD.
952 Marxuquera.  Observer J. J. Gomez.  0.25-m f/3.3 Schmidt-Cassegrain + CCD.

Orbital elements:
2001 BE10                                                            PHA 0.041
Epoch 2001 Jan. 11.0 TT = JDT 2451920.5                 Williams
M 108.58957              (2000.0)            P               Q
n   1.31912938     Peri.   30.60159     +0.83185861     +0.48720152
a   0.8234005      Node   297.90368     -0.55033376     +0.66224102
e   0.3689944      Incl.   17.50330     -0.07172166     +0.56927279
P   0.75           H   18.7           G   0.15
From 111 observations 2001 Jan. 18-21.

Ephemeris:
2001 BE10                a,e,i = 0.82, 0.37, 18                  q = 0.5196
Date    TT    R. A. (2000) Decl.     Delta      r     Elong.  Phase     V
2001 01 21    05 10.27   +22 10.2    0.078    1.043   137.5    39.6    14.8
2001 01 26    05 11.71   +11 37.2    0.112    1.061   130.9    44.6    15.8
2001 01 31    05 14.22   +06 09.6    0.148    1.077   125.1    48.4    16.5
2001 02 05    05 17.49   +02 58.9    0.185    1.091   120.3    51.3    17.1
2001 02 10    05 21.35   +00 59.2    0.222    1.102   116.0    53.6    17.6
2001 02 15    05 25.70   -00 19.4    0.259    1.111   112.2    55.4    18.0
2001 02 20    05 30.53   -01 12.5    0.295    1.119   108.6    56.9    18.4
2001 02 25    05 35.81   -01 48.9    0.332    1.124   105.2    58.2    18.7
2001 03 02    05 41.50   -02 14.5    0.367    1.126   102.1    59.4    18.9
2001 03 07    05 47.54   -02 32.8    0.401    1.127    99.0    60.4    19.1
2001 03 12    05 53.88   -02 46.5    0.434    1.126    96.1    61.4    19.3

2001 03 22    06 07.33   -03 05.6    0.494    1.116    90.6    63.2    19.7
2001 04 01    06 21.66   -03 20.4    0.545    1.098    85.3    65.0    19.9
2001 04 11    06 36.54   -03 35.8    0.587    1.072    80.2    67.1    20.1
2001 04 21    06 51.64   -03 52.8    0.615    1.037    75.3    69.7    20.2
2001 05 01    07 06.62   -04 10.4    0.629    0.993    70.4    72.9    20.2
2001 05 11    07 20.82   -04 24.4    0.628    0.940    65.3    77.4    20.3
2001 05 21    07 33.25   -04 23.7    0.609    0.880    59.7    83.5    20.3

Gareth V. Williams           (C) Copyright 2001 MPC           M.P.E.C. 2001-B15

Read MPEC 2001-B14 Read MPEC 2001-B16


Our Web policy. Index to the CBAT/MPC/ICQ pages.

